Temperature
13 13 12 11 10 11 10 9 9 10 9 7 5 5 4 2 1 -1 -2 -4 -4 -5 -5 -6 -7 -7 -8 -9 -9 -10 -10 -11 -12 -12 -13 -13 -14 -14 -14 -14 -14 -14 -14 -14
12 13 11 9 9 9 9 9 9 9 8 5 6 5 4 1 -1 -2 -3 -4 -5 -5 -5 -6 -7 -8 -8 -9 -9 -10 -11 -12 -12 -13 -13 -14 -14 -14 -14 -14 -14 -14 -14 -14
10 13 12 10 12 10 9 9 9 9 7 6 5 4 2 0 -2 -3 -4 -4 -5 -5 -6 -7 -7 -8 -9 -9 -9 -10 -11 -12 -12 -13 -13 -14 -14 -14 -14 -14 -14 -14 -14 -14
9 10 10 12 8 10 10 10 10 9 7 6 4 3 1 -1 -2 -3 -4 -4 -5 -5 -6 -7 -8 -8 -8 -9 -10 -11 -11 -12 -12 -13 -13 -14 -14 -14 -14 -14 -14 -14 -14 -13
8 8 9 10 8 8 8 8 9 8 7 5 4 2 -2 -2 -2 -3 -4 -4 -5 -6 -6 -7 -7 -8 -8 -9 -10 -11 -11 -12 -12 -13 -13 -13 -13 -14 -14 -14 -14 -14 -14 -13
7 7 8 11 8 8 8 6 7 7 5 4 2 -0 -2 -2 -3 -3 -4 -4 -5 -6 -6 -7 -7 -8 -8 -9 -10 -11 -11 -12 -12 -13 -13 -13 -13 -13 -14 -14 -14 -13 -13 -13
6 6 8 8 7 7 6 7 6 5 4 3 2 -0 -2 -3 -3 -3 -4 -4 -5 -6 -6 -7 -8 -8 -8 -9 -10 -11 -11 -12 -12 -13 -13 -13 -13 -13 -13 -14 -13 -13 -13 -13
8 7 8 6 5 5 6 6 5 4 3 2 1 -1 -2 -3 -3 -3 -4 -5 -5 -6 -6 -7 -8 -8 -8 -9 -10 -10 -11 -12 -12 -13 -13 -13 -13 -13 -13 -14 -14 -13 -13 -13
10 10 9 7 7 7 6 5 4 3 2 1 -0 -2 -3 -3 -3 -4 -4 -5 -5 -6 -6 -7 -7 -8 -8 -9 -9 -10 -11 -11 -12 -13 -13 -13 -13 -13 -13 -13 -13 -14 -14 -14
8 9 9 8 7 5 5 5 4 3 2 1 -1 -2 -2 -3 -3 -4 -4 -5 -5 -6 -6 -7 -7 -8 -8 -9 -9 -9 -11 -11 -12 -12 -13 -13 -13 -13 -13 -13 -13 -14 -14 -14
7 9 8 7 6 5 4 4 3 2 1 0 -1 -2 -2 -3 -3 -4 -4 -5 -5 -6 -6 -7 -7 -7 -8 -8 -9 -9 -10 -11 -12 -12 -13 -13 -13 -14 -13 -13 -13 -14 -14 -14
9 11 8 7 6 4 4 3 3 2 1 -0 -1 -2 -2 -3 -3 -4 -5 -5 -5 -6 -6 -7 -7 -7 -8 -8 -8 -9 -10 -11 -12 -12 -13 -13 -13 -13 -14 -14 -14 -14 -14 -14
11 9 9 8 5 4 3 3 2 2 1 -0 -1 -2 -2 -3 -3 -4 -5 -5 -5 -6 -6 -6 -7 -7 -8 -8 -8 -9 -10 -11 -11 -12 -12 -13 -13 -13 -14 -14 -14 -14 -14 -14
10 8 6 5 4 3 3 2 2 1 -0 -1 -1 -2 -2 -3 -3 -4 -4 -5 -5 -6 -6 -6 -7 -7 -7 -8 -8 -9 -9 -10 -11 -11 -12 -12 -12 -13 -13 -14 -14 -14 -14 -14
8 7 7 5 4 3 2 2 1 1 -0 -1 -2 -2 -3 -3 -3 -4 -4 -5 -5 -5 -6 -6 -6 -7 -7 -7 -8 -8 -9 -9 -10 -10 -11 -12 -12 -12 -13 -13 -14 -14 -14 -14
6 4 4 4 4 4 3 2 1 1 -0 -1 -2 -2 -3 -3 -4 -4 -4 -4 -5 -5 -5 -6 -6 -6 -7 -7 -8 -8 -9 -9 -9 -10 -10 -11 -11 -12 -12 -12 -13 -13 -14 -14
5 3 2 3 4 4 3 3 2 1 -0 -1 -2 -2 -3 -3 -4 -4 -4 -4 -5 -5 -5 -5 -6 -6 -7 -7 -8 -8 -8 -9 -9 -9 -9 -10 -11 -11 -11 -11 -12 -12 -13 -13
8 8 8 7 5 4 3 2 1 1 -0 -1 -2 -2 -3 -3 -4 -4 -4 -4 -5 -5 -5 -5 -6 -6 -6 -7 -7 -8 -8 -8 -9 -9 -9 -9 -10 -10 -10 -11 -11 -11 -11 -12
6 5 5 5 5 4 4 3 2 1 -1 -1 -2 -2 -3 -3 -4 -4 -4 -4 -5 -5 -5 -5 -5 -6 -6 -6 -7 -7 -8 -8 -8 -8 -9 -9 -9 -10 -10 -10 -10 -10 -10 -11
6 5 5 4 4 4 3 2 1 0 -0 -1 -2 -3 -3 -3 -4 -4 -4 -4 -4 -5 -5 -5 -5 -5 -5 -6 -6 -7 -7 -7 -7 -8 -8 -8 -9 -9 -10 -10 -10 -10 -10 -10
5 5 4 4 4 3 2 2 1 1 -0 -1 -2 -2 -3 -3 -4 -4 -4 -4 -4 -5 -5 -5 -5 -5 -5 -6 -6 -6 -7 -7 -7 -7 -8 -8 -9 -9 -10 -10 -10 -10 -10 -10
6 5 4 4 3 3 2 2 1 0 -0 -1 -2 -3 -3 -4 -4 -4 -4 -4 -4 -4 -5 -5 -5 -5 -5 -6 -6 -6 -6 -6 -6 -7 -7 -8 -8 -9 -9 -10 -11 -11 -11 -11
6 5 4 4 3 3 2 1 1 0 -1 -1 -2 -3 -3 -3 -4 -4 -4 -4 -4 -4 -5 -5 -5 -5 -5 -5 -6 -6 -6 -6 -6 -6 -7 -7 -8 -8 -9 -9 -10 -11 -11 -11
6 4 4 3 3 2 2 1 1 -0 -1 -2 -2 -3 -3 -4 -4 -4 -4 -4 -4 -5 -5 -5 -5 -5 -5 -5 -5 -6 -6 -6 -6 -6 -6 -6 -7 -7 -7 -8 -9 -10 -11 -12
5 4 3 3 3 2 2 1 1 -0 -1 -2 -3 -3 -4 -4 -4 -4 -4 -4 -5 -5 -5 -5 -5 -5 -5 -5 -5 -5 -6 -6 -6 -6 -6 -6 -6 -7 -7 -7 -8 -9 -10 -11
5 4 3 3 3 3 2 1 1 -0 -1 -2 -3 -3 -4 -4 -4 -5 -5 -5 -5 -5 -5 -5 -5 -5 -5 -5 -5 -5 -6 -6 -6 -6 -6 -6 -6 -7 -6 -7 -7 -8 -9 -10
4 3 3 2 2 2 2 1 1 0 -0 -1 -2 -2 -3 -4 -4 -5 -5 -5 -5 -5 -5 -5 -5 -5 -5 -5 -5 -6 -6 -6 -6 -6 -6 -6 -6 -7 -7 -6 -7 -7 -8 -9
Wind_Speed
9 7 4 6 7 7 9 8 7 8 7 4 6 5 7 9 8 8 7 8 8 9 9 10 10 10 10 10 10 11 11 11 10 10 11 12 14 14 13 13 14 11 13 15
6 3 3 7 10 10 9 9 9 10 6 7 4 6 8 9 8 7 7 8 8 9 10 10 11 11 11 10 10 11 11 10 10 10 11 12 14 14 15 14 13 12 14 15
5 2 5 8 5 10 6 7 6 4 2 4 4 6 6 8 7 6 6 7 8 9 9 10 10 10 11 11 12 11 10 10 10 10 12 13 15 14 13 12 12 13 14 15
5 8 6 4 3 1 5 5 6 3 3 5 5 6 9 9 7 6 6 6 7 8 8 9 8 9 10 11 11 11 10 10 11 11 12 12 12 12 11 9 10 10 12 14
2 5 9 3 4 3 3 5 5 5 5 6 7 4 6 7 6 5 5 5 5 6 7 8 9 10 10 11 11 11 12 12 12 12 11 12 11 11 10 9 9 9 10 13
2 3 6 3 6 4 3 5 5 6 6 6 4 2 2 4 5 5 5 4 5 7 7 8 9 9 10 12 12 12 13 13 13 12 11 11 11 10 9 9 10 11 12 12
5 7 10 3 7 7 4 5 8 7 7 6 3 3 6 6 5 5 5 5 6 7 7 8 9 9 10 11 12 12 13 13 12 11 11 11 10 9 9 10 10 11 12 11
5 6 10 8 9 8 6 6 7 8 7 7 8 9 7 6 5 5 5 6 7 7 8 8 8 9 10 11 11 12 13 13 12 12 12 12 10 8 8 9 9 9 9 10
7 9 3 9 7 5 8 8 7 7 8 8 8 8 7 5 4 4 5 5 6 7 8 8 8 8 10 11 11 12 13 12 12 13 10 9 9 8 8 7 7 9 9 10
7 7 6 9 7 8 7 8 9 9 9 8 8 9 7 4 3 3 4 5 5 7 8 8 9 9 9 10 11 12 13 11 11 11 10 9 10 9 7 7 7 8 9 9
8 4 6 8 9 8 9 11 12 9 7 8 9 8 6 4 3 2 3 4 5 6 7 8 9 9 9 9 10 11 12 10 11 12 10 9 10 10 11 7 9 7 5 6
8 6 8 8 12 12 12 11 12 11 8 8 8 9 7 5 3 2 2 4 5 6 7 8 9 9 9 8 10 11 11 10 9 9 9 9 8 9 17 17 18 16 14 11
3 5 5 9 13 12 11 11 10 10 11 10 9 7 7 5 3 2 2 4 5 7 8 8 8 9 9 8 10 10 10 9 8 10 9 9 9 9 9 13 17 17 16 15
9 8 6 6 9 11 11 11 10 10 9 9 8 7 6 5 3 1 2 4 6 7 7 7 8 8 9 9 10 11 9 11 11 7 7 7 7 7 7 9 8 7 11 16
9 7 8 8 12 13 13 13 13 11 10 9 8 7 7 5 3 2 3 5 6 6 5 6 8 9 9 11 11 11 9 7 7 6 6 6 6 6 6 7 7 6 5 8
10 8 12 14 15 15 14 13 12 13 11 9 8 8 7 5 3 4 5 3 3 5 6 7 7 8 11 10 11 9 7 14 13 8 7 7 7 6 6 6 6 6 6 6
15 12 12 15 16 16 15 13 13 14 12 10 10 9 7 5 3 5 2 1 3 6 7 6 6 9 11 9 9 7 6 9 15 10 7 7 7 6 6 6 7 7 6 9
16 15 15 19 19 17 15 12 12 13 11 10 10 9 8 7 5 3 1 3 5 7 5 3 6 9 8 9 7 6 6 6 7 7 7 8 9 8 7 7 8 9 8 10
11 11 12 14 15 15 15 14 13 12 11 12 12 10 8 6 4 2 2 3 5 6 4 6 10 8 7 10 12 5 6 7 7 7 7 12 12 9 9 9 9 9 9 9
11 12 12 13 13 12 14 12 13 12 11 11 10 9 8 6 5 4 3 5 5 4 5 7 6 5 7 10 12 5 6 7 8 8 8 9 10 11 11 12 11 11 10 9
13 13 14 14 13 12 13 14 15 14 12 12 11 10 9 7 6 5 3 4 3 4 6 7 4 5 8 9 10 5 6 7 7 7 9 10 11 11 12 13 13 13 13 12
13 13 14 14 14 13 12 12 12 13 13 11 9 9 8 7 6 5 6 5 3 5 4 2 3 7 10 9 5 5 6 6 7 7 9 10 10 11 12 13 13 13 13 13
12 12 15 15 15 13 12 11 12 13 13 13 12 12 9 7 6 5 4 4 3 5 3 2 5 8 9 6 4 5 6 6 6 8 9 9 10 10 11 13 13 13 13 13
12 13 13 12 13 14 14 12 10 9 10 9 9 10 9 6 5 4 3 3 4 4 3 4 5 6 7 4 3 5 5 5 6 7 8 9 9 10 10 11 12 12 13 14
14 14 14 16 15 12 12 12 10 8 9 7 8 8 6 5 4 5 5 4 5 4 2 4 5 5 4 3 3 4 5 5 6 6 7 8 9 10 10 11 12 13 13 13
12 13 13 13 11 11 12 12 11 10 10 10 9 8 8 6 5 4 4 4 5 5 3 3 3 3 3 3 4 4 4 5 6 6 6 7 8 9 10 11 12 11 12 14
11 10 10 10 9 11 12 12 12 12 12 12 11 10 9 8 7 7 6 5 5 4 3 4 3 3 3 3 4 5 6 6 7 7 8 9 10 10 12 14 15 16 18 19
Wind_Direction
287 279 232 252 263 248 220 232 254 282 338 47 99 59 53 64 60 39 20 10 2 351 345 343 342 338 336 331 328 328 321 318 318 321 322 323 323 321 322 325 325 320 323 320
286 219 213 257 239 237 248 243 251 276 303 107 74 54 52 67 57 31 13 4 355 347 343 342 337 332 330 326 327 321 316 316 319 324 325 325 325 328 329 326 323 324 322 319
285 282 263 273 253 196 209 209 224 257 126 109 49 39 54 84 67 34 16 359 348 342 339 332 326 326 329 330 323 319 319 322 326 325 325 327 331 330 326 325 326 325 322 321
296 338 273 246 16 36 211 230 216 225 107 104 73 58 87 84 70 39 18 356 342 334 326 318 321 328 328 324 320 323 330 334 332 328 324 326 327 326 324 324 323 320 321 326
335 297 278 228 180 173 201 269 199 184 137 101 64 63 91 73 71 52 23 1 337 326 318 325 328 327 328 325 326 334 340 339 333 327 326 328 330 328 328 325 323 322 327 331
174 248 262 251 127 92 75 262 149 138 132 107 74 304 160 103 78 56 25 358 341 333 333 329 321 326 332 330 336 342 340 336 329 328 330 331 332 331 330 331 332 334 337 339
217 238 267 145 132 123 167 246 141 133 125 120 128 141 133 116 82 51 26 1 355 342 332 320 321 335 334 334 339 337 335 331 331 333 332 333 333 330 332 338 338 339 341 346
202 229 260 149 149 189 205 127 131 124 121 121 116 116 118 108 88 51 20 2 355 339 325 321 333 342 335 336 333 335 334 334 335 335 337 344 335 333 336 342 346 347 350 354
212 224 179 163 181 158 134 142 131 123 121 125 129 131 124 117 98 60 24 359 346 331 322 328 341 346 336 330 336 338 336 337 338 337 338 340 341 340 341 346 352 358 359 359
277 259 189 182 133 139 145 132 121 124 128 132 132 129 127 122 96 59 20 354 340 331 330 332 340 340 330 331 340 338 336 339 342 341 342 344 350 350 347 347 354 5 1 355
254 243 131 177 157 145 117 113 113 114 122 133 131 134 140 142 112 67 10 345 336 331 327 328 331 332 331 342 343 338 335 341 344 344 340 345 352 353 356 353 6 11 350 345
233 213 182 194 164 144 140 141 140 134 129 131 137 142 148 155 130 84 355 339 337 331 328 324 326 330 335 346 343 338 340 345 344 343 345 348 347 351 1 5 9 12 9 8
160 96 102 134 143 142 146 145 145 144 145 138 136 146 153 145 125 79 356 350 333 321 316 317 328 331 338 341 341 337 334 339 343 344 342 347 352 353 351 356 5 7 5 4
122 110 118 139 148 143 134 134 129 125 130 139 147 149 142 133 122 62 324 313 303 303 308 326 331 330 335 337 339 335 332 340 344 331 333 338 344 347 347 347 346 347 354 356
164 156 157 142 131 127 133 136 137 142 149 153 145 142 148 157 173 236 283 283 295 303 324 332 326 327 332 337 338 333 332 329 330 327 328 331 334 336 336 335 334 330 326 341
165 137 136 144 148 149 150 153 158 164 164 156 154 163 166 163 185 250 262 272 310 309 310 309 314 323 330 333 335 332 330 338 345 337 328 327 326 326 325 324 322 320 319 314
154 159 162 169 168 170 173 172 170 168 165 163 167 161 158 169 216 244 245 3 307 283 279 293 312 313 323 327 324 324 321 326 338 335 324 323 322 320 316 315 315 316 310 315
181 180 177 176 174 173 173 167 163 165 166 162 152 155 169 185 204 202 300 317 301 292 276 318 303 306 318 321 320 321 318 316 320 320 325 328 332 325 317 311 310 311 309 313
170 164 165 168 169 168 166 166 162 159 153 154 161 172 181 180 164 179 260 283 282 285 292 310 319 332 317 324 340 321 322 322 324 325 327 337 340 331 327 321 314 308 304 305
161 157 154 153 153 156 159 155 150 152 156 159 161 163 169 176 177 196 237 254 246 254 285 288 301 310 314 323 341 328 327 326 328 330 335 338 337 337 335 333 330 325 317 307
157 153 152 154 153 153 155 153 155 160 162 165 168 172 174 174 175 186 217 259 232 232 278 309 341 309 313 332 343 333 328 330 333 335 340 341 339 338 337 337 338 339 338 331
158 157 157 156 154 154 153 154 157 157 160 165 164 161 162 171 183 202 224 230 257 287 293 298 299 312 331 346 342 329 330 337 339 339 342 342 340 338 337 336 338 341 342 340
161 161 161 162 160 153 148 155 160 163 168 171 172 174 178 182 183 191 219 200 211 272 289 265 299 324 342 354 335 331 334 338 338 342 341 339 338 337 334 333 335 337 339 341
162 162 160 150 140 146 159 164 159 163 165 167 171 172 171 174 187 201 196 195 226 267 270 278 306 330 350 351 332 334 332 328 328 337 338 336 335 335 333 332 334 336 337 338
160 156 153 153 158 167 162 152 147 151 158 166 170 175 177 175 174 172 168 187 226 254 266 283 303 331 347 325 325 329 325 319 326 339 337 335 334 333 331 332 335 336 338 340
161 165 167 169 166 161 160 162 169 173 177 180 183 184 185 184 178 163 170 192 215 235 236 251 279 303 310 312 316 319 317 321 330 329 327 331 329 329 328 329 329 335 337 338
148 155 157 161 164 163 165 171 176 180 184 184 184 181 180 179 180 184 188 194 201 210 218 229 242 261 280 296 305 312 315 317 321 324 329 330 327 326 326 325 330 335 338 339
Height
1591 1588 1589 1592 1593 1592 1595 1594 1595 1586 1587 1589 1593 1594 1594 1594 1594 1594 1593 1591 1588 1584 1579 1575 1570 1564 1559 1552 1547 1540 1534 1528 1522 1516 1509 1502 1496 1490 1485 1480 1475 1469 1463 1456
1592 1585 1590 1591 1588 1589 1589 1589 1588 1586 1587 1590 1591 1592 1592 1593 1593 1593 1592 1590 1586 1583 1578 1573 1568 1562 1557 1551 1545 1538 1532 1527 1521 1514 1507 1501 1494 1489 1483 1478 1472 1467 1461 1455
1598 1584 1586 1585 1575 1581 1582 1581 1583 1584 1587 1588 1589 1591 1591 1592 1592 1592 1590 1588 1585 1581 1577 1572 1567 1562 1555 1550 1543 1537 1531 1525 1519 1512 1506 1500 1494 1488 1482 1477 1471 1465 1460 1454
1601 1598 1597 1575 1577 1575 1577 1577 1578 1580 1583 1586 1589 1590 1590 1590 1591 1590 1589 1587 1584 1580 1576 1571 1566 1561 1556 1549 1542 1536 1530 1524 1517 1511 1505 1499 1494 1488 1482 1477 1471 1465 1460 1454
1607 1606 1593 1578 1577 1578 1579 1578 1575 1578 1581 1585 1587 1589 1590 1590 1590 1589 1587 1585 1583 1579 1575 1570 1565 1560 1554 1548 1542 1535 1529 1522 1516 1510 1505 1499 1493 1488 1483 1477 1471 1466 1461 1456
1608 1611 1599 1574 1577 1577 1580 1581 1576 1577 1580 1583 1586 1589 1590 1589 1588 1587 1586 1584 1581 1578 1574 1569 1564 1559 1553 1547 1541 1535 1528 1522 1516 1511 1506 1500 1495 1489 1484 1478 1473 1468 1463 1458
1608 1607 1587 1576 1576 1579 1585 1576 1575 1577 1579 1582 1584 1586 1588 1587 1587 1586 1585 1583 1581 1577 1573 1568 1563 1559 1553 1547 1541 1535 1529 1523 1517 1512 1506 1501 1496 1490 1485 1479 1474 1469 1465 1461
1597 1599 1586 1574 1575 1577 1574 1571 1573 1576 1579 1581 1582 1583 1584 1585 1585 1585 1584 1582 1580 1576 1572 1568 1563 1558 1553 1547 1542 1536 1529 1523 1517 1512 1507 1502 1496 1491 1486 1480 1475 1471 1467 1463
1579 1576 1565 1565 1566 1567 1568 1570 1572 1575 1577 1579 1580 1581 1582 1583 1583 1583 1583 1581 1579 1575 1571 1567 1563 1559 1553 1548 1542 1535 1529 1523 1518 1512 1508 1502 1497 1491 1487 1482 1477 1473 1469 1465
1572 1563 1561 1562 1563 1565 1567 1568 1570 1573 1575 1576 1577 1579 1580 1581 1582 1582 1581 1580 1577 1574 1571 1567 1563 1559 1554 1548 1543 1536 1529 1524 1518 1513 1508 1503 1498 1493 1488 1483 1479 1475 1471 1468
1567 1560 1559 1560 1560 1562 1564 1566 1569 1571 1573 1574 1575 1577 1578 1580 1580 1581 1580 1578 1576 1573 1570 1567 1563 1559 1554 1549 1543 1537 1530 1525 1520 1515 1510 1504 1499 1495 1490 1486 1482 1478 1474 1471
1558 1551 1553 1553 1554 1557 1560 1563 1566 1569 1570 1572 1574 1575 1576 1578 1579 1579 1579 1577 1575 1572 1570 1566 1562 1558 1554 1549 1544 1537 1531 1526 1521 1516 1511 1506 1501 1496 1492 1488 1484 1480 1476 1473
1548 1547 1548 1548 1551 1553 1557 1561 1564 1566 1568 1569 1571 1573 1575 1576 1577 1577 1577 1576 1574 1571 1569 1566 1562 1558 1554 1550 1544 1539 1533 1528 1523 1518 1513 1508 1503 1497 1492 1488 1484 1480 1477 1474
1542 1544 1545 1546 1548 1551 1554 1558 1561 1564 1566 1568 1569 1571 1573 1575 1576 1576 1575 1574 1572 1570 1568 1565 1562 1558 1554 1550 1545 1540 1535 1530 1525 1520 1515 1510 1505 1500 1494 1489 1484 1480 1477 1474
1537 1539 1541 1542 1545 1548 1551 1555 1558 1560 1563 1565 1567 1569 1571 1573 1574 1574 1574 1573 1571 1569 1567 1564 1561 1558 1554 1550 1546 1541 1536 1531 1527 1522 1517 1512 1507 1502 1497 1491 1486 1482 1478 1474
1532 1535 1536 1538 1540 1544 1547 1551 1554 1557 1559 1562 1565 1567 1569 1571 1572 1572 1572 1571 1570 1568 1566 1563 1560 1557 1553 1550 1546 1542 1537 1533 1528 1523 1518 1513 1508 1503 1498 1493 1487 1483 1478 1474
1526 1527 1530 1533 1535 1539 1543 1547 1550 1553 1556 1559 1562 1565 1567 1569 1570 1571 1570 1570 1568 1567 1565 1562 1560 1556 1553 1550 1546 1542 1538 1534 1529 1524 1519 1514 1509 1504 1499 1494 1489 1483 1479 1474
1518 1521 1523 1526 1529 1534 1539 1543 1547 1550 1553 1557 1560 1563 1565 1567 1568 1569 1569 1568 1567 1566 1564 1561 1559 1556 1553 1550 1546 1542 1538 1534 1529 1524 1520 1515 1510 1505 1500 1495 1490 1484 1479 1474
1512 1516 1519 1523 1527 1532 1536 1540 1544 1547 1551 1554 1557 1560 1563 1565 1566 1567 1567 1567 1566 1564 1563 1560 1558 1556 1553 1549 1546 1542 1538 1534 1529 1525 1520 1515 1511 1506 1500 1495 1490 1485 1479 1473
1507 1511 1515 1519 1524 1529 1533 1537 1541 1544 1547 1551 1554 1557 1560 1562 1564 1564 1565 1565 1564 1563 1561 1559 1557 1555 1552 1549 1545 1542 1538 1533 1529 1524 1519 1515 1510 1505 1500 1495 1490 1485 1480 1474
1502 1506 1511 1515 1520 1525 1529 1533 1537 1540 1544 1547 1550 1554 1557 1559 1561 1562 1562 1563 1562 1561 1560 1558 1556 1553 1550 1548 1545 1541 1538 1534 1529 1524 1519 1515 1510 1505 1500 1496 1491 1486 1480 1475
1497 1502 1506 1511 1516 1520 1525 1529 1533 1537 1540 1544 1547 1551 1553 1556 1558 1559 1560 1561 1560 1559 1558 1556 1554 1552 1550 1547 1544 1541 1538 1534 1530 1525 1520 1515 1510 1505 1501 1496 1491 1486 1481 1475
1492 1497 1502 1507 1511 1516 1521 1525 1529 1533 1536 1540 1543 1546 1549 1552 1554 1556 1558 1558 1558 1557 1556 1555 1553 1551 1549 1547 1544 1541 1538 1534 1530 1526 1521 1516 1511 1506 1501 1496 1491 1486 1481 1475
1487 1492 1498 1503 1508 1512 1516 1520 1525 1529 1533 1537 1540 1543 1546 1549 1551 1553 1554 1555 1556 1555 1555 1553 1552 1550 1548 1546 1544 1541 1538 1535 1531 1527 1523 1518 1513 1508 1503 1497 1491 1486 1480 1475
1483 1488 1493 1497 1502 1507 1512 1516 1521 1525 1528 1531 1535 1538 1541 1544 1547 1549 1551 1552 1553 1553 1553 1552 1550 1549 1547 1545 1543 1541 1538 1535 1532 1528 1524 1520 1515 1509 1504 1498 1492 1486 1480 1474
1477 1482 1487 1492 1498 1503 1506 1511 1515 1519 1522 1525 1529 1532 1536 1539 1542 1545 1547 1548 1549 1550 1550 1550 1549 1547 1546 1544 1543 1540 1538 1535 1532 1529 1525 1520 1516 1511 1505 1499 1492 1486 1479 1473
1473 1478 1483 1488 1492 1496 1501 1505 1509 1513 1517 1520 1523 1527 1531 1534 1537 1540 1542 1544 1546 1547 1547 1547 1547 1546 1544 1543 1541 1539 1537 1535 1532 1528 1525 1520 1516 1511 1506 1499 1493 1486 1479 1473